www.pogodaiklimat.ru

Погода и климат >> Архив погоды >> Азербайджан >> Мараза


ПОГОДА в Маразе

  • Прогноз погоды в Маразе
  • Монитор погоды в Маразе

АРХИВ ПОГОДЫ в Маразе

Время (UTC), дата Ветер
(напр.,м/с)
 
Видим.   Явления Облачность Т
(С)
Тd
(С)
f
(%)
Тe
(С)
Тes
(С)
Комфортность P
(гПа)
Po
(гПа)
Тmin
(С)
Tmax
(С)
R
(мм)
R24
(мм)
S
(см)
03 9.06 С 2 50 км ясно +21.0 +11.9 56 +24 +26 комфорт 1017.5 933.2
06 9.06 штиль 0 50 км 1/0
[Ci sp]
+26.0 +8.5 33 +26 +44 жарко 1016.8 933.8 +17.7
09 9.06 СЗ 2 50 км 3/3 600 м
[Cu med, cong]
+27.9 +9.2 31 +28 +42 жарко 1015.8 933.4
12 9.06 СВ 2 50 км 4/4 600 м
[Cu med, cong]
+28.7 +9.0 29 +28 +35 жарко 1015.3 933.1
15 9.06 В 3 50 км 4/3 600 м
[Cu med, cong Ci sp]
+25.2 +5.9 29 +25 +25 комфорт 1017.0 933.6
18 9.06 СВ 2 10 км ясно +19.8 +4.0 35 +21 +21 комфорт 1019.4 934.4 +29.8
21 9.06 В 2 10 км ясно +19.4 +5.3 40 +21 +21 комфорт 1019.3 934.3
00 10.06 штиль 0 10 км ясно +15.9 +6.2 52 +16 +16 1019.8 933.8
03 10.06 штиль 0 50 км 1/0
[Ci sp]
+17.8 +8.2 53 +18 +21 1019.6 934.2
06 10.06 Ю 2 50 км 4/0
[Ci sp]
+25.9 +7.0 30 +26 +38 жарко 1018.0 934.8 +15.3
09 10.06 ЮЗ 4 50 км 3/0
[Ci sp]
+28.9 +7.1 25 +28 +41 жарко 1017.1 934.8
12 10.06 ЮЗ 3 50 км 6/0
[Ci sp]
+28.4 +5.6 23 +27 +36 жарко 1015.6 933.3
15 10.06 Ю 3 50 км 10/0
[Ac As]
+25.8 +5.0 26 +25 +25 комфорт 1016.1 933.1
18 10.06 штиль 0 10 км 6/0
[Ac und]
+21.4 +4.6 33 +22 +22 комфорт 1017.4 933.0 +29.6
21 10.06 СЗ 2 10 км 4/0
[Ci sp]
+19.1 +4.3 38 +20 +20 1019.0 933.8
00 11.06 штиль 0 10 км ясно +14.2 +6.1 58 +14 +14 1018.4 932.0
03 11.06 штиль 0 50 км 4/0
[Ci sp]
+18.8 +7.1 46 +19 +22 1016.6 931.6
06 11.06 Ю 2 50 км 3/0
[Ci sp]
+25.8 +11.0 39 +27 +40 жарко 1014.7 931.9 +13.7
09 11.06 Ю 3 50 км 8/8 600 м
[Cu med, cong]
+27.6 +13.2 41 +29 +33 жарко 1013.7 931.5
12 11.06 ЮЗ 5 50 км 6/3 600 м
[Cu med, cong Ac cast Ci sp]
+28.7 +13.0 38 +30 +33 жарко 1012.5 930.6
15 11.06 Ю 5 50 км 8/0
[Ci sp]
+25.2 +9.8 38 +26 +26 жарко 1011.8 929.0
18 11.06 штиль 0 10 км 6/0
[Ac und]
+20.2 +8.4 47 +21 +21 комфорт 1014.1 929.8 +29.5
21 11.06 штиль 0 10 км 9/0
[Ci sp]
+19.6 +10.2 55 +21 +21 комфорт 1013.1 928.7
00 12.06 штиль 0 10 км 10/0
[Ac As]
+19.9 +11.2 57 +21 +21 комфорт 1010.4 926.4
03 12.06 штиль 0 50 км 8/0
[Ac und]
+19.0 +11.3 61 +20 +21 1011.8 927.4
06 12.06 Ю 3 50 км ясно +26.1 +8.9 34 +26 +38 жарко 1009.5 927.1 +18.4
09 12.06 Ю 2 50 км 3/1 600 м
[Cu med, cong Ci sp]
+29.8 +8.5 26 +29 +46 жарко 1008.2 926.9
12 12.06 В 1 50 км ясно +30.3 +7.0 23 +29 +42 жарко 1007.1 926.0
15 12.06 В 3 50 км 4/0
[Ci sp]
+26.2 +5.1 26 +25 +26 комфорт 1007.4 925.2
18 12.06 СВ 2 10 км 6/0
[Ci sp]
+21.7 +4.0 31 +22 +22 комфорт 1010.7 926.9 +31.2
21 12.06 С 4 10 км 3/0
[Ci sp]
+21.5 +4.3 32 +22 +22 комфорт 1009.6 925.8
00 13.06 С 5 10 км ясно +21.0 +5.8 37 +22 +22 комфорт 1009.5 925.7
03 13.06 С 2 50 км 3/3 600 м
[Sc Ci sp]
+21.9 +4.6 32 +22 +24 комфорт 1009.6 926.0
06 13.06 штиль 0 50 км гроза без осадков 8/8 600 м
[Cu med, cong]
+26.4 +16.5 55 +30 +34 душно 1007.2 925.4 +20.6
09 13.06 В 1 50 км {гроза} 8/4 600 м
[Cu med, cong Ci sp]
+29.8 +18.0 49 +34 +47 очень
душно
1005.7 924.9
12 13.06 ЮВ 2 50 км {гроза} 4/0
[Ci sp]
+31.3 +15.3 38 +34 +44 душно 1005.2 924.6
15 13.06 ЮВ 2 50 км 6/0
[Ac und]
+28.4 +11.2 34 +29 +30 жарко 1007.3 925.7
18 13.06 СВ 1 10 км ясно +23.0 +2.1 25 +22 +22 комфорт 1009.2 925.9 +32.3
21 13.06 СВ 2 10 км 1/0
[Ci sp]
+22.8 +4.3 30 +23 +23 комфорт 1009.6 926.3
00 14.06 штиль 0 10 км ясно +19.9 +5.0 38 +20 +20 1011.9 927.3
03 14.06 С 2 50 км 3/0
[Ac und]
+23.3 +7.0 35 +24 +26 комфорт 1011.0 927.7
06 14.06 В 1 50 км 3/0
[Ci sp]
+29.0 +10.0 31 +29 +44 жарко 1008.8 927.2 +19.3
09 14.06 В 2 50 км 4/3 600 м
[Cu med, cong Ci sp]
+31.6 +2.1 15 +29 +43 жарко 1009.8 928.6
12 14.06 СВ 6 50 км 8/4 600 м
[Cu med, cong Ci sp]
+30.8 +0.2 14 +28 +30 жарко 1009.9 928.5
15 14.06 СВ 4 50 км 3/0
[Ac und]
+27.6 +5.8 25 +27 +27 жарко 1010.1 928.0
18 14.06 С 2 10 км ясно +22.0 +4.8 33 +22 +22 комфорт 1012.8 929.0 +32.4
21 14.06 СВ 2 10 км ясно +21.3 +4.8 34 +22 +22 комфорт 1013.3 929.3
00 15.06 В 1 10 км ясно +19.8 +4.8 37 +21 +21 комфорт 1013.7 929.3
03 15.06 штиль 0 50 км 1/0
[Ci sp]
+21.0 +6.4 39 +22 +25 комфорт 1014.2 930.0
06 15.06 В 2 50 км 3/0
[Ci sp]
+27.6 +9.9 33 +28 +41 жарко 1012.6 930.4 +19.2
09 15.06 ЮЗ 2 50 км 3/0
[Ci sp]
+29.2 +9.4 29 +29 +48 жарко 1011.5 929.7
12 15.06 штиль 0 50 км 1/0
[Ci sp]
+30.3 +6.1 22 +29 +44 жарко 1009.8 928.4
15 15.06 В 2 50 км 3/0
[Ac und]
+25.9 +7.6 31 +26 +27 жарко 1011.4 928.8
18 15.06 штиль 0 10 км ясно +19.9 +5.0 38 +20 +20 1013.6 929.2 +31.3
21 15.06 штиль 0 10 км ясно +16.9 +7.6 54 +17 +17 1013.5 928.3
00 16.06 штиль 0 10 км ясно +15.4 +7.8 60 +15 +15 1013.5 927.8

 

Местоположение метеостанции Мараза (Азербайджан): широта 40.53 долгота 48.93 высота над уровнем моря 755 м.

В архиве по умолчанию представлена погода в Маразе за последнюю неделю. Архивные данные за месяц целиком и за предыдущие месяцы, начиная с января 2011 года, Вы можете получить, выбрав интересующий диапазон дат из раскрывающегося списка и нажав кнопку "Ввод!".


*Определитесь, кто Вы:
робот инопланетянин человек

Внимание! Время в таблицах - всемирное. Для получения местного времени необходимо прибавить поправку, которая равна 4 ч.

Смотрите также архив погоды в соседних городах и на ближайших метеорологических станциях:

Погода в Шемахе (Азербайджан) (28 км)
Погода в Курдамире (Азербайджан) (68 км)
Погода в Баку (дендропарк) (Азербайджан) (73 км)
Погода в Алате (Азербайджан) (74 км)
Погода в Баку (Азербайджан) (97 км)
Погода в Губе (Азербайджан) (100 км)
Погода в Геокчае (Азербайджан) (101 км)
Погода в Габале (Азербайджан) (102 км)
Погода в Нефтечале (Азербайджан) (129 км)
Погода в Парсабаде (Иран) (130 км)

Пояснения к столбцам:

Ветер - указаны скорость ветра в м/с - средняя за 10 мин, порывы в срок и между сроками (в фигурных скобках) и направление, откуда дует ветер: С - северный, СВ - северо-восточный, В - восточный, ЮВ - юго-восточный, Ю - южный, ЮЗ - юго-западный, З - западный, СЗ - северо-западный.
Видимость - горизонтальная дальность видимости в метрах или километрах. При видимости от 1 до 10 км при отсутствии осадков обычно наблюдается дымка, при ухудшении видимости до 1 км и менее - туман. В сухую погоду видимость может ухудшаться дымом, пылью или мглою.
Явления - указаны атмосферные явления, наблюдавшиеся в срок или в последний час перед сроком; фигурными скобками обозначены явления, наблюдавшиеся между сроками (за 1-3 часа до срока); квадратными скобками обозначены град или гололедные отложения с указанием их диаметра в мм.
Облачность - указаны через наклонную черту общая и нижняя облачность в баллах и высота нижней границы облаков в метрах; квадратными скобками обозначены формы облаков: Ci - перистые, Cs - перисто-слоистые, Cc - перисто-кучевые, Ac - высококучевые, As - высокослоистые, Sc - слоисто-кучевые, Ns - слоисто-дождевые, Cu - кучевые, Cb - кучево-дождевые. Подробнее классификацию облаков см. в Атласе облаков (PDF).
T - Температура воздуха - температура, измеренная на высоте 2 м над землей.
Td - Температура точки росы - температура, при понижении до которой содержащийся в воздухе водяной пар достигнет насыщения.
f - Относительная влажность воздуха - влажноcть воздуха, измеренная на высоте 2 м над землей.
Te - Эффективная температура - температура, которую ощущает одетый по сезону человек в тени. Характеристика душности погоды. При расчете учитывается влияние влажности воздуха и скорости ветра на теплоощущения человека.
Tes - Эффективная температура на солнце - температура, которую ощущает человек, с поправкой на солнечный нагрев. Характеристика знойности погоды. Зависит от высоты солнца над горизонтом, облачности и скорости ветра. Ночью, в пасмурную погоду, а также при ветре 12 м/с и более поправка равна нулю.
P - Атмосферное давление - приведенное к уровню моря атмосферное давление.
Po - Атмосферное давление - измеренное на уровне метеостанции атмосферное давление.
Tmin - Минимальная температура - минимум температуры воздуха на высоте 2 м над землей.
Tmax - Максимальная температура - максимум температуры воздуха на высоте 2 м над землей.
R - Количество осадков - Количество выпавших осадков за период времени, мм. При наведении курсора мыши на число - период времени, за который выпало указанное количество осадков.
R24 - Количество осадков - Количество выпавших осадков за 24 часа, мм.
S - Снежный покров - Высота снежного покрова, см. При наведении курсора мыши на число - состояние снежного покрова и степень покрытия местности в баллах.